Weather History for KJAC - November, 2013

Change the Weather History Date:

Friday, November 15, 2013

  Actual Average Record
Temperature  
Mean Temperature 38 °F -  
Max Temperature 50 °F - - ()
Min Temperature 26 °F - - ()
Degree Days  
Heating Degree Days 27    
Moisture  
Dew Point 23 °F    
Average Humidity 74    
Maximum Humidity 93    
Minimum Humidity 32    
Precipitation  
Precipitation 0.00 in - - ()
Sea Level Pressure  
Sea Level Pressure 29.67 in    
Wind  
Wind Speed 6 mph (SSW)    
Max Wind Speed 17 mph    
Max Gust Speed 22 mph    
Visibility 10 miles    
Events      
T = Trace of Precipitation, MM = Missing Value Source: NWS Daily Summary

Daily Weather History Graph

Daily Weather History Graph

Search for Another Location

Airport or City:

Trip Planner

Search our weather history database for the weather conditions in past years. The results will help you decide how hot, cold, wet, or windy it might be!

Date:

Astronomy

Nov. 15, 2013 Rise Set
Actual Time 7:17 AM MST 4:57 PM MST
Civil Twilight 6:46 AM MST 5:28 PM MST
Nautical Twilight 6:11 AM MST 6:03 PM MST
Astronomical Twilight 5:37 AM MST 6:36 PM MST
Moon 3:59 PM MST (11/15) 5:14 AM MST (11/15)
Length of Visible Light 10h 42m
Length of Day
9h 40m
Waxing Gibbous, 97% of the Moon is Illuminated
Nov 15
Waxing Gibbous
Nov 17
Full
Nov 25
Last Quarter
Dec 2
New
Dec 9
First Quarter

Hourly Weather History & Observations

Time (MST) Temp. Windchill Dew Point Humidity Pressure Visibility Wind Dir Wind Speed Gust Speed Precip Events Conditions
12:15 AM 26.6 °F 20.0 °F 24.8 °F 93% 29.76 in 10.0 mi North 5.8 mph - N/A   Mostly Cloudy
12:35 AM 28.4 °F - 26.6 °F 93% 29.76 in 10.0 mi Calm Calm - N/A   Overcast
12:55 AM 28.4 °F - 24.8 °F 86% 29.75 in 10.0 mi Calm Calm - N/A   Overcast
1:15 AM 28.4 °F - 26.6 °F 93% 29.74 in 10.0 mi Calm Calm - N/A   Overcast
1:35 AM 30.2 °F - 24.8 °F 80% 29.74 in - Calm Calm - N/A   Overcast
1:55 AM 30.2 °F - 24.8 °F 80% 29.74 in - Calm Calm - N/A   Overcast
2:15 AM 28.4 °F 22.2 °F 24.8 °F 86% 29.74 in 10.0 mi WSW 5.8 mph - N/A   Overcast
2:35 AM 28.4 °F 24.6 °F 24.8 °F 86% 29.74 in 10.0 mi WSW 3.5 mph - N/A   Overcast
2:55 AM 28.4 °F - 26.6 °F 93% 29.73 in 10.0 mi Calm Calm - N/A   Overcast
3:15 AM 30.2 °F 26.7 °F 24.8 °F 80% 29.73 in - NNW 3.5 mph - N/A   Overcast
3:35 AM 30.2 °F 24.3 °F 24.8 °F 80% 29.73 in 10.0 mi West 5.8 mph - N/A   Overcast
3:55 AM 30.2 °F 24.3 °F 26.6 °F 86% 29.73 in 10.0 mi WSW 5.8 mph - N/A   Overcast
4:15 AM 30.2 °F 24.3 °F 26.6 °F 86% 29.72 in 10.0 mi WSW 5.8 mph - N/A   Overcast
4:35 AM 30.2 °F 24.3 °F 26.6 °F 86% 29.72 in 10.0 mi SSW 5.8 mph - N/A   Overcast
4:55 AM 30.2 °F 26.7 °F 26.6 °F 86% 29.72 in 10.0 mi WSW 3.5 mph - N/A   Overcast
5:15 AM 30.2 °F 26.7 °F 26.6 °F 86% 29.72 in 10.0 mi West 3.5 mph - N/A   Overcast
5:35 AM 30.2 °F 23.4 °F 26.6 °F 86% 29.72 in 10.0 mi SW 6.9 mph - N/A   Overcast
5:55 AM 30.2 °F 23.4 °F 26.6 °F 86% 29.71 in 10.0 mi SSW 6.9 mph - N/A   Overcast
6:15 AM 30.2 °F 25.4 °F 26.6 °F 86% 29.70 in 10.0 mi SW 4.6 mph - N/A   Overcast
6:35 AM 30.2 °F 23.4 °F 26.6 °F 86% 29.70 in 10.0 mi South 6.9 mph - N/A   Mostly Cloudy
6:51 AM 28.4 °F 20.4 °F 26.6 °F 93% 29.70 in 10.0 mi SSE 8.1 mph - N/A   Mostly Cloudy
7:51 AM 26.6 °F - 24.8 °F 93% 29.71 in 10.0 mi Calm Calm - N/A   Scattered Clouds
8:51 AM 30.2 °F - 26.6 °F 86% 29.71 in 10.0 mi Calm Calm - N/A   Scattered Clouds
9:56 AM 35.6 °F 28.6 °F 21.2 °F 56% 29.70 in 10.0 mi South 9.2 mph - N/A   Scattered Clouds
10:53 AM 35.6 °F 27.5 °F 21.2 °F 56% 29.69 in 10.0 mi South 11.5 mph 17.3 mph N/A   Scattered Clouds
11:52 AM 35.6 °F 26.6 °F 19.4 °F 52% 29.67 in 10.0 mi WSW 13.8 mph 21.9 mph N/A   Mostly Cloudy
12:53 PM 35.6 °F 27.5 °F 19.4 °F 52% 29.66 in 10.0 mi SW 11.5 mph 20.7 mph N/A   Mostly Cloudy
1:51 PM 35.6 °F 27.5 °F 19.4 °F 52% 29.64 in 10.0 mi SSW 11.5 mph - N/A   Mostly Cloudy
2:53 PM 35.6 °F 25.9 °F 19.4 °F 52% 29.62 in 10.0 mi South 16.1 mph 19.6 mph N/A   Mostly Cloudy
3:51 PM 33.8 °F 23.9 °F 17.6 °F 52% 29.61 in 10.0 mi SSW 15.0 mph 19.6 mph N/A   Mostly Cloudy
4:45 PM 50.0 °F - 21.2 °F 32% 29.51 in 30.0 mi West 6.9 mph - N/A   Mostly Cloudy
4:51 PM 32.0 °F 23.0 °F 19.4 °F 60% 29.61 in 10.0 mi SSW 11.5 mph 18.4 mph N/A   Mostly Cloudy
5:59 PM 30.2 °F 21.9 °F 21.2 °F 69% 29.62 in 10.0 mi South 9.2 mph - N/A   Overcast
6:52 PM 30.2 °F 20.2 °F 19.4 °F 64% 29.62 in 10.0 mi South 12.7 mph - N/A   Mostly Cloudy
7:53 PM 28.4 °F 18.5 °F 17.6 °F 64% 29.62 in 10.0 mi South 11.5 mph 17.3 mph N/A   Mostly Cloudy
9:35 PM 28.4 °F 18.5 °F 17.6 °F 64% 29.59 in 10.0 mi South 11.5 mph - N/A   Mostly Cloudy
9:55 PM 28.4 °F 17.5 °F 17.6 °F 64% 29.58 in 10.0 mi South 13.8 mph - N/A   Mostly Cloudy
10:15 PM 28.4 °F 17.0 °F 17.6 °F 64% 29.57 in 10.0 mi South 15.0 mph - N/A   Overcast
10:35 PM 28.4 °F 18.0 °F 17.6 °F 64% 29.56 in 10.0 mi South 12.7 mph - N/A   Overcast
10:55 PM 28.4 °F 17.5 °F 19.4 °F 69% 29.56 in 10.0 mi South 13.8 mph 18.4 mph N/A   Overcast
11:15 PM 28.4 °F 16.2 °F 19.4 °F 69% 29.54 in 10.0 mi South 17.3 mph 20.7 mph N/A   Overcast
11:35 PM 28.4 °F 17.0 °F 19.4 °F 69% 29.55 in 10.0 mi South 15.0 mph 20.7 mph N/A   Overcast
11:55 PM 28.4 °F 18.0 °F 19.4 °F 69% 29.54 in 10.0 mi South 12.7 mph 18.4 mph N/A   Overcast